THORAD AGENA D DEB

Satellite information

Favourite Embed

Satellite Type and Status

DEBRISIN ORBIT

Key statistics

Satellite THORAD AGENA D DEB at a glance.

Uptime

20477

Days in orbit

Revolutions

≈ 14.9

Per day

Orbit

LEO

Low Earth Orbit

Inclination

70.1

Latest

Satellite identification and parameters

Extended collection of information and parameters for THORAD AGENA D DEB.

Object identification

Identified? True

Debris? True

Object name: THORAD AGENA D DEB

International designator: 1969-082HJ

Object number (NORAD): 4938

Object ID (CCSDS): 4938

Country: UNITED STATES OF AMERICA (US)

Current information (Y/N): Y

RCS size: SMALL

Orbital parameters

Period: 96.787 minutes

Inclination: 70.1214 deg

SMA: 6982.915 km

Apoapsis: 612.02 km

Periapsis: 597.54 km

RAAN: 269.6085 deg

Eccentricy: 0.00103681

Argument of periapsis: 62.4603 deg

Mean anomaly: 297.7603 deg

Mean motion: 14.87810425 rev/day

Mean motion (dot): 0.00022987 rev/day2

B* drag term: 0.0025105311 1/REarth

Two-line elements (TLE)

Creation date: Oct. 20, 2025, 6:08 p.m.

Reference frame: TEME

Reference center: EARTH

Epoch: Oct. 20, 2025, 8:59 a.m. UTC

TLE line 0: 0 THORAD AGENA D DEB

TLE line 1: 1 04938U 69082HJ 25293.37488756 .00022987 00000-0 25105-2 0 9991

TLE line 2: 2 04938 70.1214 269.6085 0010368 62.4603 297.7603 14.87810425937931

Live tracking on map

Real-time ground track for satellite THORAD AGENA D DEB.

In-orbit conjunctions

A list of the most updated potential collisions computed for object THORAD AGENA D DEB.

Target Orbit TCA Probability of collision Miss distance Type
RUBIN 2 LEO 2025-04-14 10:48:55 0.0009229105 80.0 (m) PAYLOAD
CZ-6A DEB LEO 2025-03-02 03:20:50 0.0001059443 543.0 (m) DEBRIS
PSLV R/B SSO 2024-12-08 16:57:55 0.0001689617 22.0 (m) ROCKET BODY

Associated space launch

Poppy was the follow-on ELINT system, which succeeded the Grab ELINT satellite system.

THORAD AGENA D DEB was lifted into orbit during the mission ‘Thorad SLV-2G Agena D | Poppy 8A,B,C,D’, on board a Thorad SLV-2G Agena D space rocket.

The launch took place on Sept. 30, 1969, 1:40 p.m. from Space Launch Complex 1W.

For more information about the launch, click the button.

Launch to space Thorad SLV-2G Agena D | Poppy 8A,B,C,D
Thorad SLV-2G Agena D | Poppy 8A,B,C,D

Agency: N/A

Status: Launch Successful

Launch date: Sept. 30, 1969, 1:40 p.m. UTC

Rocket: Thorad SLV-2G Agena D

Launch pad: Space Launch Complex 1W

Location: Vandenberg SFB, CA, USA

...

Latest news about this satellite

There are no fresh news available about this satellite. Check back as we update our databases every day.


Newsletter sign-up

Weekly statistics, charts and insights to help you stay on top of the space industry.